When you browse on this site, cookies collect data to enhance your experience and personalize the content and advertising you see.
Visit our Privacy Policy to learn more. By continuing to use the site, you agree to this use of cookies and data.
  • In Czech Republic
  • List of Countries
  • For 7 days
  • Water Temperature
  • Satellite Maps
  • Weather Map
  • Weather Widgets
  • user-avatar
    Login

    Hourly Weather Fez

    Today, 18 January, Friday

    Time Temperature Precipitation Wind Pressure Humidity
    00:00 +10°C° 0 mm 1 mps 730 mmHg 85%
    01:00 +9°C° 0.1 mm 1 mps 730 mmHg 85%
    02:00 +8°C° 0.1 mm 0 mps 730 mmHg 85%
    03:00 +8°C° 0.1 mm 0 mps 730 mmHg 86%
    04:00 +8°C° 0 mm 0 mps 730 mmHg 86%
    05:00 +7°C° 0 mm 0 mps 730 mmHg 86%
    06:00 +7°C° 0 mm 0 mps 730 mmHg 87%
    07:00 +8°C° 0 mm 0 mps 730 mmHg 83%
    08:00 +9°C° 0 mm 0 mps 731 mmHg 79%
    09:00 +10°C° 0 mm 0 mps 731 mmHg 75%
    10:00 +12°C° 0 mm 1 mps 731 mmHg 70%
    11:00 +13°C° 0 mm 1 mps 731 mmHg 64%
    12:00 +14°C° 0 mm 1 mps 731 mmHg 59%
    13:00 +15°C° 0.1 mm 2 mps 731 mmHg 58%
    14:00 +14°C° 0.1 mm 3 mps 731 mmHg 57%
    15:00 +14°C° 0.1 mm 3 mps 731 mmHg 56%
    16:00 +13°C° 0.1 mm 3 mps 731 mmHg 64%
    17:00 +13°C° 0.1 mm 2 mps 731 mmHg 71%
    18:00 +10°C° 0.1 mm 2 mps 731 mmHg 79%
    19:00 +10°C° 0.1 mm 2 mps 732 mmHg 82%
    20:00 +10°C° 0.1 mm 1 mps 732 mmHg 84%
    21:00 +10°C° 0.1 mm 1 mps 732 mmHg 87%
    22:00 +9°C° 0 mm 1 mps 733 mmHg 88%
    23:00 +9°C° 0 mm 1 mps 733 mmHg 88%

    Tomorrow, 19 January, Saturday

    Time Temperature Precipitation Wind Pressure Humidity
    00:00 +9°C° 0 mm 1 mps 733 mmHg 89%
    01:00 +9°C° 0 mm 1 mps 733 mmHg 88%
    02:00 +9°C° 0 mm 1 mps 733 mmHg 86%
    03:00 +9°C° 0 mm 1 mps 733 mmHg 85%
    04:00 +10°C° 0.1 mm 1 mps 733 mmHg 85%
    05:00 +10°C° 0.1 mm 1 mps 733 mmHg 85%
    06:00 +10°C° 0.1 mm 1 mps 733 mmHg 85%
    07:00 +10°C° 0.1 mm 1 mps 733 mmHg 84%
    08:00 +10°C° 0.1 mm 1 mps 733 mmHg 82%
    09:00 +11°C° 0.1 mm 1 mps 733 mmHg 81%
    10:00 +11°C° 0.4 mm 1 mps 733 mmHg 81%
    11:00 +11°C° 0.4 mm 1 mps 733 mmHg 81%
    12:00 +11°C° 0.4 mm 1 mps 733 mmHg 81%
    13:00 +11°C° 0.6 mm 1 mps 733 mmHg 82%
    14:00 +11°C° 0.6 mm 1 mps 732 mmHg 83%
    15:00 +11°C° 0.6 mm 1 mps 732 mmHg 83%
    16:00 +11°C° 1.8 mm 1 mps 732 mmHg 85%
    17:00 +10°C° 1.8 mm 2 mps 732 mmHg 86%
    18:00 +10°C° 1.8 mm 2 mps 732 mmHg 88%
    19:00 +10°C° 1.1 mm 2 mps 732 mmHg 88%
    20:00 +12°C° 1.1 mm 2 mps 732 mmHg 88%
    21:00 +11°C° 1.1 mm 3 mps 733 mmHg 88%
    22:00 +11°C° 0.5 mm 3 mps 732 mmHg 88%
    23:00 +11°C° 0.5 mm 3 mps 732 mmHg 89%

    Day after tomorrow, 20 January, Sunday

    Time Temperature Precipitation Wind Pressure Humidity
    00:00 +11°C° 0.5 mm 3 mps 732 mmHg 89%
    01:00 +11°C° 0.6 mm 3 mps 732 mmHg 88%
    02:00 +11°C° 0.6 mm 3 mps 731 mmHg 88%
    03:00 +11°C° 0.6 mm 3 mps 731 mmHg 87%
    04:00 +11°C° 0.2 mm 4 mps 730 mmHg 85%
    05:00 +10°C° 0.2 mm 6 mps 730 mmHg 82%
    06:00 +11°C° 0.2 mm 7 mps 730 mmHg 80%
    07:00 +11°C° 1 mm 7 mps 730 mmHg 81%
    08:00 +11°C° 1 mm 7 mps 730 mmHg 82%
    09:00 +11°C° 1 mm 8 mps 731 mmHg 83%
    10:00 +11°C° 0.5 mm 8 mps 731 mmHg 82%
    11:00 +11°C° 0.5 mm 8 mps 731 mmHg 81%
    12:00 +12°C° 0.5 mm 8 mps 731 mmHg 81%
    13:00 +12°C° 0.5 mm 8 mps 731 mmHg 82%
    14:00 +11°C° 0.5 mm 7 mps 731 mmHg 83%
    15:00 +11°C° 0.5 mm 6 mps 730 mmHg 85%
    16:00 +12°C° 0.3 mm 5 mps 731 mmHg 86%
    17:00 +10°C° 0.3 mm 5 mps 731 mmHg 87%
    18:00 +11°C° 0.3 mm 4 mps 731 mmHg 88%
    19:00 +11°C° 0.1 mm 4 mps 732 mmHg 88%
    20:00 +10°C° 0.1 mm 3 mps 732 mmHg 88%
    21:00 +10°C° 0.1 mm 3 mps 733 mmHg 88%
    22:00 +10°C° 0.1 mm 3 mps 733 mmHg 87%
    23:00 +10°C° 0.1 mm 2 mps 733 mmHg 86%

    21 January, Monday

    Time Temperature Precipitation Wind Pressure Humidity
    00:00 +10°C° 0.1 mm 2 mps 733 mmHg 85%
    01:00 +9°C° 0.1 mm 2 mps 733 mmHg 85%
    02:00 +9°C° 0.1 mm 2 mps 732 mmHg 85%
    03:00 +9°C° 0.1 mm 2 mps 732 mmHg 84%
    04:00 +9°C° 0.1 mm 2 mps 732 mmHg 84%
    05:00 +8°C° 0.1 mm 2 mps 732 mmHg 84%
    06:00 +9°C° 0.1 mm 1 mps 732 mmHg 83%
    07:00 +10°C° 0.2 mm 1 mps 733 mmHg 81%
    08:00 +10°C° 0.2 mm 1 mps 733 mmHg 79%
    09:00 +11°C° 0.2 mm 1 mps 734 mmHg 76%
    10:00 +12°C° 0.2 mm 2 mps 734 mmHg 71%
    11:00 +12°C° 0.2 mm 2 mps 734 mmHg 67%
    12:00 +12°C° 0.2 mm 3 mps 734 mmHg 62%
    13:00 +12°C° 0.2 mm 3 mps 733 mmHg 61%
    14:00 +13°C° 0.2 mm 3 mps 733 mmHg 61%
    15:00 +13°C° 0.2 mm 3 mps 732 mmHg 60%
    16:00 +12°C° 0.4 mm 2 mps 732 mmHg 67%
    17:00 +10°C° 0.4 mm 2 mps 733 mmHg 74%
    18:00 +10°C° 0.4 mm 1 mps 733 mmHg 81%
    19:00 +10°C° 0.5 mm 1 mps 733 mmHg 82%
    20:00 +9°C° 0.5 mm 1 mps 734 mmHg 84%
    21:00 +8°C° 0.5 mm 2 mps 734 mmHg 85%
    22:00 +8°C° 0.2 mm 2 mps 734 mmHg 86%
    23:00 +8°C° 0.2 mm 1 mps 734 mmHg 86%

    22 January, Tuesday

    Time Temperature Precipitation Wind Pressure Humidity
    00:00 +8°C° 0.2 mm 1 mps 734 mmHg 86%
    01:00 +8°C° 0.1 mm 1 mps 734 mmHg 86%
    02:00 +7°C° 0.1 mm 1 mps 734 mmHg 85%
    03:00 +7°C° 0.1 mm 1 mps 734 mmHg 85%
    04:00 +7°C° 0 mm 1 mps 734 mmHg 83%
    05:00 +7°C° 0 mm 1 mps 734 mmHg 81%
    06:00 +7°C° 0 mm 1 mps 734 mmHg 79%
    07:00 +7°C° 0 mm 1 mps 735 mmHg 75%
    08:00 +8°C° 0 mm 1 mps 735 mmHg 70%
    09:00 +9°C° 0 mm 1 mps 735 mmHg 66%
    10:00 +9°C° 0 mm 2 mps 735 mmHg 63%
    11:00 +12°C° 0 mm 2 mps 735 mmHg 59%
    12:00 +12°C° 0 mm 3 mps 735 mmHg 56%
    13:00 +12°C° 0 mm 4 mps 735 mmHg 54%
    14:00 +12°C° 0 mm 4 mps 734 mmHg 51%
    15:00 +12°C° 0 mm 5 mps 734 mmHg 49%
    16:00 +11°C° 0 mm 4 mps 734 mmHg 55%
    17:00 +10°C° 0 mm 4 mps 734 mmHg 61%
    18:00 +8°C° 0 mm 3 mps 734 mmHg 67%
    19:00 +8°C° 0 mm 3 mps 735 mmHg 70%
    20:00 +7°C° 0 mm 2 mps 735 mmHg 72%
    21:00 +7°C° 0 mm 2 mps 735 mmHg 75%
    22:00 +7°C° 0 mm 2 mps 735 mmHg 73%
    23:00 +8°C° 0 mm 2 mps 735 mmHg 72%

    23 January, Wednesday

    Time Temperature Precipitation Wind Pressure Humidity
    00:00 +8°C° 0 mm 3 mps 735 mmHg 71%
    01:00 +8°C° 0 mm 3 mps 735 mmHg 71%
    02:00 +8°C° 0 mm 2 mps 734 mmHg 72%
    03:00 +8°C° 0 mm 2 mps 734 mmHg 73%
    04:00 +8°C° 0 mm 3 mps 734 mmHg 72%
    05:00 +8°C° 0 mm 3 mps 734 mmHg 71%
    06:00 +8°C° 0 mm 3 mps 734 mmHg 70%
    07:00 +8°C° 0 mm 3 mps 734 mmHg 70%
    08:00 +9°C° 0 mm 3 mps 734 mmHg 69%
    09:00 +9°C° 0 mm 3 mps 734 mmHg 69%
    10:00 +9°C° 0 mm 3 mps 733 mmHg 69%
    11:00 +10°C° 0 mm 3 mps 733 mmHg 70%
    12:00 +10°C° 0 mm 2 mps 733 mmHg 71%
    13:00 +10°C° 0.1 mm 2 mps 732 mmHg 73%
    14:00 +10°C° 0.1 mm 2 mps 731 mmHg 75%
    15:00 +10°C° 0.1 mm 2 mps 731 mmHg 77%
    16:00 +10°C° 0.1 mm 2 mps 731 mmHg 78%
    17:00 +10°C° 0.1 mm 2 mps 731 mmHg 79%
    18:00 +10°C° 0.1 mm 2 mps 731 mmHg 80%
    19:00 +10°C° 0.1 mm 2 mps 731 mmHg 82%
    20:00 +9°C° 0.1 mm 2 mps 731 mmHg 84%
    21:00 +9°C° 0.1 mm 2 mps 731 mmHg 87%
    22:00 +9°C° 0.1 mm 2 mps 731 mmHg 88%
    23:00 +9°C° 0.1 mm 2 mps 730 mmHg 89%
    Show more